Weather History for LKTB - November, 2013

Change the Weather History Date:

Sunday, November 24, 2013

  Actual Average Record
Temperature  
Mean Temperature 44 °F -  
Max Temperature 48 °F 37 °F - ()
Min Temperature 39 °F 28 °F - ()
Degree Days  
Heating Degree Days 22    
Moisture  
Dew Point 38 °F    
Average Humidity 75    
Maximum Humidity 87    
Minimum Humidity 59    
Precipitation  
Precipitation 0.00 in 0.04 in - ()
Sea Level Pressure  
Sea Level Pressure 29.81 in    
Wind  
Wind Speed 12 mph ()    
Max Wind Speed 18 mph    
Max Gust Speed -    
Visibility 6.5 miles    
Events Rain    
T = Trace of Precipitation, MM = Missing Value Source: Averaged Metar Reports

Daily Weather History Graph

Daily Weather History Graph

Search for Another Location

Airport or City:

Trip Planner

Search our weather history database for the weather conditions in past years. The results will help you decide how hot, cold, wet, or windy it might be!

Date:

Astronomy

Nov. 24, 2013 Rise Set
Actual Time 7:16 AM CET 4:02 PM CET
Civil Twilight 6:41 AM CET 4:38 PM CET
Nautical Twilight 6:01 AM CET 5:17 PM CET
Astronomical Twilight 5:23 AM CET 5:55 PM CET
Moon 10:27 PM CET (11/24) 11:41 AM CET (11/24)
Length of Visible Light 9h 57m
Length of Day
8h 45m
Waning Gibbous, 63% of the Moon is Illuminated
Nov 24
Waning Gibbous
Nov 25
Last Quarter
Dec 3
New
Dec 9
First Quarter
Dec 17
Full

Hourly Weather History & Observations

Time (CET) Temp. Windchill Dew Point Humidity Pressure Visibility Wind Dir Wind Speed Gust Speed Precip Events Conditions
12:00 AM 46.4 °F 41.1 °F 41.0 °F 81% 29.80 in 6.2 mi NNE 11.5 mph - N/A   Mostly Cloudy
12:30 AM 46.4 °F 40.4 °F 41.0 °F 81% 29.80 in 6.2 mi NNE 13.8 mph - N/A   Scattered Clouds
1:00 AM 47 °F - 40 °F 68% 29.82 in 9 mi NE 13.4 mph - -   Partly Cloudy
1:00 AM 46.4 °F 41.5 °F 41.0 °F 81% 29.80 in 6.2 mi NNE 10.4 mph - N/A   Scattered Clouds
1:30 AM 48.2 °F - 41.0 °F 76% 29.80 in 6.2 mi NE 12.7 mph - N/A   Mostly Cloudy
2:00 AM 48.2 °F - 41.0 °F 76% 29.80 in 6.2 mi NNE 10.4 mph - N/A   Mostly Cloudy
2:30 AM 48.2 °F - 41.0 °F 76% 29.80 in 6.2 mi NNE 12.7 mph - N/A   Mostly Cloudy
3:00 AM 48.2 °F - 41.0 °F 76% 29.77 in 6.2 mi North 12.7 mph - N/A   Mostly Cloudy
3:30 AM 48.2 °F - 41.0 °F 76% 29.77 in 6.2 mi NNE 13.8 mph - N/A   Mostly Cloudy
4:00 AM 48.2 °F - 41.0 °F 76% 29.80 in 6.2 mi NNE 11.5 mph - N/A   Overcast
4:30 AM 48.2 °F - 41.0 °F 76% 29.77 in 6.2 mi NNE 12.7 mph - N/A   Overcast
5:00 AM 48.2 °F - 42.8 °F 82% 29.77 in 6.2 mi NNE 15.0 mph - N/A   Overcast
5:30 AM 48.2 °F - 41.0 °F 76% 29.77 in 6.2 mi North 15.0 mph - N/A   Overcast
6:00 AM 48.2 °F - 41.0 °F 76% 29.77 in 6.2 mi North 13.8 mph - N/A   Overcast
6:30 AM 48.2 °F - 41.0 °F 76% 29.77 in 6.2 mi North 15.0 mph - N/A   Overcast
7:00 AM 47 °F - 42 °F 76% 29.81 in 7 mi NNE 11.2 mph - -   Overcast
7:00 AM 48.2 °F - 42.8 °F 82% 29.77 in 6.2 mi NNE 11.5 mph - N/A   Overcast
7:15 AM 46.4 °F 40.7 °F 42.8 °F 87% 29.77 in 5.0 mi NNE 12.7 mph - N/A Rain Light Rain
7:30 AM 46.4 °F 40.7 °F 42.8 °F 87% 29.77 in 3.7 mi North 12.7 mph - N/A Rain Light Rain
8:00 AM 46.4 °F 40.4 °F 42.8 °F 87% 29.80 in 5.6 mi North 13.8 mph - N/A Rain Light Rain
8:30 AM 46.4 °F 41.1 °F 42.8 °F 87% 29.80 in 6.2 mi North 11.5 mph - N/A Rain Light Rain
9:00 AM 46.4 °F 40.4 °F 42.8 °F 87% 29.80 in 5.6 mi North 13.8 mph - N/A Rain Light Rain
9:30 AM 48.2 °F - 41.0 °F 76% 29.80 in 6.2 mi North 12.7 mph - N/A Rain Light Rain
10:00 AM 48.2 °F - 41.0 °F 76% 29.80 in 6.2 mi North 11.5 mph - N/A   Mostly Cloudy
10:30 AM 48.2 °F - 41.0 °F 76% 29.80 in 6.2 mi North 15.0 mph - N/A   Scattered Clouds
11:00 AM 48.2 °F - 41.0 °F 76% 29.80 in 6.2 mi North 13.8 mph - N/A   Scattered Clouds
11:30 AM 48.2 °F - 41.0 °F 76% 29.80 in 6.2 mi North 10.4 mph - N/A   Overcast
12:00 PM 48.2 °F - 41.0 °F 76% 29.77 in 6.2 mi North 12.7 mph - N/A   Mostly Cloudy
12:30 PM 48.2 °F - 41.0 °F 76% 29.77 in 6.2 mi NNW 13.8 mph - N/A   Mostly Cloudy
1:00 PM 49 °F - 39 °F 59% 29.80 in 11 mi NNW 17.9 mph - -   Partly Cloudy
1:00 PM 48.2 °F - 39.2 °F 71% 29.77 in 6.2 mi NNW 17.3 mph - N/A   Partly Cloudy
1:30 PM 48.2 °F - 39.2 °F 71% 29.77 in 6.2 mi NNW 17.3 mph - N/A   Partly Cloudy
2:00 PM 48.2 °F - 39.2 °F 71% 29.77 in 6.2 mi NNW 17.3 mph - N/A   Partly Cloudy
2:30 PM 46.4 °F 39.5 °F 37.4 °F 71% 29.77 in - NNW 17.3 mph - N/A   Clear
3:00 PM 46.4 °F 39.8 °F 37.4 °F 71% 29.80 in - NNW 16.1 mph - N/A   Clear
3:30 PM 46.4 °F 40.1 °F 37.4 °F 71% 29.80 in 6.2 mi NNW 15.0 mph - N/A   Partly Cloudy
4:00 PM 46.4 °F 40.4 °F 37.4 °F 71% 29.80 in 6.2 mi NNW 13.8 mph - N/A   Mostly Cloudy
4:30 PM 44.6 °F 38.4 °F 37.4 °F 76% 29.80 in 6.2 mi NNW 12.7 mph - N/A   Mostly Cloudy
5:00 PM 44.6 °F 38.8 °F 37.4 °F 76% 29.80 in 6.2 mi NNW 11.5 mph - N/A   Overcast
5:30 PM 42.8 °F 36.6 °F 35.6 °F 76% 29.83 in 6.2 mi NNW 11.5 mph - N/A   Overcast
6:00 PM 42.8 °F 36.2 °F 35.6 °F 76% 29.83 in 6.2 mi NW 12.7 mph - N/A   Overcast
6:30 PM 41.0 °F 33.9 °F 33.8 °F 76% 29.83 in 6.2 mi NNW 12.7 mph - N/A   Overcast
7:00 PM 40 °F - 32 °F 64% 29.88 in 19 mi NNW 11.2 mph - -   Mostly Cloudy
7:00 PM 41.0 °F 35.2 °F 33.8 °F 76% 29.83 in 6.2 mi North 9.2 mph - N/A   Mostly Cloudy
7:30 PM 41.0 °F 33.9 °F 32.0 °F 70% 29.83 in 6.2 mi North 12.7 mph - N/A   Mostly Cloudy
8:00 PM 41.0 °F 34.3 °F 32.0 °F 70% 29.86 in 6.2 mi NNW 11.5 mph - N/A   Mostly Cloudy
8:30 PM 41.0 °F 34.3 °F 32.0 °F 70% 29.86 in 6.2 mi North 11.5 mph - N/A   Mostly Cloudy
9:00 PM 41.0 °F 36.4 °F 32.0 °F 70% 29.86 in 6.2 mi North 6.9 mph - N/A   Mostly Cloudy
9:30 PM 41.0 °F 36.4 °F 32.0 °F 70% 29.86 in 6.2 mi NNW 6.9 mph - N/A   Mostly Cloudy
10:00 PM 41.0 °F 34.3 °F 32.0 °F 70% 29.89 in 6.2 mi NNW 11.5 mph - N/A   Mostly Cloudy
10:30 PM 39.2 °F 31.6 °F 30.2 °F 70% 29.89 in 6.2 mi NNW 12.7 mph - N/A   Mostly Cloudy
11:00 PM 39.2 °F 33.6 °F 30.2 °F 70% 29.89 in 6.2 mi NNW 8.1 mph - N/A   Mostly Cloudy
11:30 PM 39.2 °F 33.0 °F 30.2 °F 70% 29.89 in 6.2 mi NW 9.2 mph - N/A   Mostly Cloudy